Location: Hains Lake
(37.8540°N, 99.8578°W)
Time: 09:41:58
(UTC+00:00)

Tiros 1 despin weight - Pass Details

Date: 27 April 2021
Orbit: 593 x 642 km, 48.2° (Epoch: 07 May)

Event Time Altitude Azimuth Distance (km) Brightness Sun altitude
Rises 10:21:53 0° 270° (W) 2,929 - -16.1°
Reaches altitude 10° 10:24:28 10° 281° (WNW) 2,016 - -15.7°
Exits shadow 10:25:16 14° 287° (WNW) 1,756 ? -15.6°
Maximum altitude 10:28:33 30° 343° (NNW) 1,138 ? -15.0°
Drops below altitude 10° 10:32:36 10° 45° (NE) 1,995 ? -14.3°
Sets 10:35:08 0° 56° (NE) 2,893 ? -13.9°
